EW1633 Weather Reports


Display with metric or nautical units.
time (UTC)temp
F
wind
direction
speed
MPH
gust
MPH
rain 1hr
in
rain 24hr
in
rain mn
in
humidity
%
barometer
mb
20260505073055 0 232 4.0 13.0 0.00 0.00 0.00 1009.1
20260505071556 0 247 5.0 10.0 0.00 0.00 0.00 1009.0
20260505070029 0 249 4.0 10.0 0.00 0.00 0.00 1009.0
20260505064527 0 224 4.0 9.0 0.00 0.00 0.00 1008.9
20260505063012 0 245 3.0 10.0 0.00 0.00 0.00 1008.9
20260505061503 0 231 4.0 8.0 0.00 0.00 0.00 1008.8
20260505060057 0 244 5.0 12.0 0.00 0.00 0.00 1008.7
20260505054556 0 240 5.0 13.0 0.00 0.00 0.00 1008.8
20260505053056 0 252 6.0 13.0 0.00 0.00 0.00 1008.8
20260505051544 0 221 9.0 15.0 0.00 0.00 0.00 1008.7
20260505041515 0 256 10.0 16.0 0.00 0.00 0.00 1008.2
20260505040007 0 259 10.0 17.0 0.00 0.00 0.00 1008.0
20260505034503 0 250 8.0 16.0 0.00 0.00 0.00 1007.9
20260505033100 0 207 8.0 17.0 0.00 0.00 0.00 1007.7
20260505031555 0 261 6.0 16.0 0.00 0.00 0.00 1007.7
20260505030049 0 237 8.0 15.0 0.00 0.00 0.00 1007.4
20260505024546 0 245 7.0 16.0 0.00 0.00 0.00 1007.2
20260505023028 0 255 8.0 16.0 0.00 0.00 0.00 1007.1
20260505021526 0 247 9.0 17.0 0.00 0.00 0.00 1007.0
20260505020019 0 250 11.0 20.0 0.00 0.00 0.00 1007.1
20260505014514 0 248 8.0 16.0 0.00 0.00 0.00 1007.1
20260505013011 0 232 8.0 17.0 0.00 0.00 0.00 1007.2
20260505011509 0 268 10.0 18.0 0.00 0.00 0.00 1007.1
20260505010106 0 219 9.0 17.0 0.00 0.00 0.00 1007.2
20260505004557 0 226 10.0 16.0 0.00 0.00 0.00 1007.2
20260505003039 0 255 9.0 16.0 0.00 0.00 0.00 1007.2
20260505001536 0 256 6.0 15.0 0.00 0.00 0.00 1007.4
20260505000033 0 224 5.0 12.0 0.00 0.00 0.00 1007.4
20260504234526 0 231 6.0 14.0 0.00 0.00 0.00 1007.5
20260504233021 0 230 4.0 11.0 0.00 0.00 0.00 1007.4
20260504231516 0 248 6.0 13.0 0.00 0.00 0.00 1007.5
20260504230012 0 217 5.0 10.0 0.00 0.00 0.00 1007.6
20260504224509 0 243 5.0 11.0 0.00 0.00 0.00 1007.8
20260504223051 0 233 5.0 12.0 0.00 0.00 0.00 1008.0
20260504221546 0 234 6.0 12.0 0.00 0.00 0.00 1008.1
20260504220058 0 195 4.0 11.0 0.00 0.00 0.00 1008.2
20260504214550 0 249 3.0 9.0 0.00 0.00 0.00 1008.4
20260504213048 0 249 4.0 12.0 0.00 0.00 0.00 1008.5
20260504211534 0 232 3.0 10.0 0.00 0.00 0.00 1008.6
20260504210028 0 221 3.0 12.0 0.00 0.00 0.00 1008.7
20260504204526 0 244 6.0 13.0 0.00 0.00 0.00 1009.0
20260504203011 0 229 4.0 10.0 0.00 0.00 0.00 1008.9
20260504201503 0 226 3.0 10.0 0.00 0.00 0.00 1009.0
20260504194555 0 212 5.0 9.0 0.00 0.00 0.00 1009.3
20260504193051 0 227 4.0 10.0 0.00 0.00 0.00 1009.3
20260504191554 0 219 3.0 10.0 0.00 0.00 0.00 1009.4
20260504190047 0 214 4.0 11.0 0.00 0.00 0.00 1009.4
20260504184550 0 219 3.0 10.0 0.00 0.00 0.00 1009.4
20260504183034 0 240 3.0 8.0 0.00 0.00 0.00 1009.5
20260504181522 0 234 5.0 11.0 0.00 0.00 0.00 1009.4
20260504180009 0 214 4.0 8.0 0.00 0.00 0.00 1009.4
20260504174504 0 229 5.0 10.0 0.00 0.00 0.00 1009.4
20260504173106 0 253 3.0 11.0 0.00 0.00 0.00 1009.4
20260504171556 0 238 4.0 8.0 0.00 0.00 0.00 1009.3
20260504081552 0 41 0.0 2.0 0.00 0.00 0.00 1009.0